timestamp,wind_dir_avg,wind_spd_avg,wind_spd_max_dir,wind_spd_gust,battery_voltage,lat,long
2021-11-01 00:04:01+00:00,151.0,4.04,151.0,4.95,12.65,47.59359,-54.27349
2021-11-01 00:14:01+00:00,129.0,2.39,134.0,3.09,12.57,47.59359,-54.27349
2021-11-01 00:24:01+00:00,150.0,5.93,152.0,6.73,12.57,47.59359,-54.27349
2021-11-01 00:34:01+00:00,147.0,5.04,151.0,5.64,12.57,47.59359,-54.27349
2021-11-01 00:44:01+00:00,137.0,3.46,152.0,4.16,12.57,47.59359,-54.27349
2021-11-01 00:54:01+00:00,140.0,3.77,145.0,4.51,12.57,47.59359,-54.27349
2021-11-01 01:04:01+00:00,124.0,3.04,124.0,3.43,12.57,47.59359,-54.27349
2021-11-01 01:14:01+00:00,139.0,3.05,143.0,3.69,12.57,47.59359,-54.27349
2021-11-01 01:24:01+00:00,124.0,3.03,123.0,3.42,12.57,47.59359,-54.27349
2021-11-01 01:34:01+00:00,135.0,4.13,142.0,4.79,12.57,47.59359,-54.27349
2021-11-01 01:44:01+00:00,165.0,4.79,161.0,7.44,12.57,47.59359,-54.27349
2021-11-01 01:54:01+00:00,163.0,5.46,154.0,6.04,12.57,47.59359,-54.27349
2021-11-01 02:04:01+00:00,162.0,4.0,167.0,4.68,12.57,47.59359,-54.27349
2021-11-01 02:14:01+00:00,151.0,5.16,157.0,5.78,12.57,47.59359,-54.27349
2021-11-01 02:24:01+00:00,156.0,5.31,159.0,6.61,12.57,47.59359,-54.27349
2021-11-01 02:34:01+00:00,141.0,5.98,149.0,7.63,12.57,47.59359,-54.27349
2021-11-01 02:44:01+00:00,171.0,7.27,163.0,8.23,12.57,47.59359,-54.27349
2021-11-01 02:54:01+00:00,158.0,8.35,158.0,9.98,12.57,47.59359,-54.27349
2021-11-01 03:04:01+00:00,153.0,8.93,154.0,10.42,12.57,47.59359,-54.27349
2021-11-01 03:14:00+00:00,158.0,8.32,162.0,9.8,12.57,47.59359,-54.27349
2021-11-01 03:24:00+00:00,169.0,7.49,165.0,8.52,12.57,47.59359,-54.27349
2021-11-01 03:34:00+00:00,156.0,7.95,161.0,8.86,12.57,47.59359,-54.27349
2021-11-01 03:44:00+00:00,160.0,6.91,161.0,7.53,12.57,47.59359,-54.27349
2021-11-01 03:54:00+00:00,160.0,7.06,160.0,8.22,12.57,47.59359,-54.27349
2021-11-01 04:04:00+00:00,162.0,7.49,165.0,8.23,12.57,47.59359,-54.27349
2021-11-01 04:14:01+00:00,167.0,7.33,176.0,8.36,12.49,47.59359,-54.27349
2021-11-01 04:24:01+00:00,161.0,8.64,158.0,10.48,12.49,47.59359,-54.27349
2021-11-01 04:34:01+00:00,161.0,7.74,155.0,9.39,12.49,47.59359,-54.27349
2021-11-01 04:44:01+00:00,164.0,8.43,168.0,10.01,12.49,47.59359,-54.27349
2021-11-01 04:54:01+00:00,159.0,7.66,161.0,8.77,12.49,47.59359,-54.27349
2021-11-01 05:04:01+00:00,153.0,7.45,151.0,8.77,12.49,47.59359,-54.27349
2021-11-01 05:14:01+00:00,157.0,6.01,158.0,6.82,12.49,47.59359,-54.27349
2021-11-01 05:24:01+00:00,161.0,7.65,163.0,9.03,12.49,47.59359,-54.27349
2021-11-01 05:34:01+00:00,158.0,7.8,162.0,8.99,12.49,47.59359,-54.27349
2021-11-01 05:44:01+00:00,153.0,7.88,148.0,8.95,12.49,47.59359,-54.27349
2021-11-01 05:54:01+00:00,156.0,8.48,157.0,9.27,12.49,47.59359,-54.27349
2021-11-01 06:04:01+00:00,149.0,7.31,147.0,8.3,12.49,47.59359,-54.27349
2021-11-01 06:14:01+00:00,154.0,6.72,156.0,7.45,12.49,47.59359,-54.27349
2021-11-01 06:24:01+00:00,158.0,7.46,157.0,8.47,12.49,47.59359,-54.27349
2021-11-01 06:34:01+00:00,156.0,6.67,159.0,7.79,12.49,47.59359,-54.27349
2021-11-01 06:44:01+00:00,151.0,6.79,154.0,7.69,12.49,47.59359,-54.27349
2021-11-01 06:54:01+00:00,153.0,6.33,160.0,7.98,12.49,47.59359,-54.27349
2021-11-01 07:04:01+00:00,143.0,6.45,135.0,7.17,12.49,47.59359,-54.27349
2021-11-01 07:14:00+00:00,141.0,5.78,144.0,6.42,12.49,47.59359,-54.27349
2021-11-01 07:24:00+00:00,140.0,5.71,140.0,6.49,12.49,47.59359,-54.27349
2021-11-01 07:34:00+00:00,141.0,6.18,139.0,6.85,12.49,47.59359,-54.27349
2021-11-01 07:44:00+00:00,141.0,6.4,134.0,7.14,12.49,47.59359,-54.27349
2021-11-01 07:54:00+00:00,141.0,7.32,143.0,8.13,12.49,47.59359,-54.27349
2021-11-01 08:04:00+00:00,144.0,6.87,145.0,7.49,12.49,47.59359,-54.27349
2021-11-01 08:14:00+00:00,143.0,6.51,142.0,7.38,12.41,47.59359,-54.27349
2021-11-01 08:24:00+00:00,145.0,8.22,146.0,9.23,12.41,47.59359,-54.27349
2021-11-01 08:34:00+00:00,143.0,7.94,141.0,8.67,12.41,47.59359,-54.27349
2021-11-01 08:44:00+00:00,144.0,7.63,143.0,8.52,12.41,47.59359,-54.27349
2021-11-01 08:54:00+00:00,145.0,7.8,146.0,9.12,12.41,47.59359,-54.27349
2021-11-01 09:04:00+00:00,150.0,7.17,153.0,7.88,12.41,47.59359,-54.27349
2021-11-01 09:14:00+00:00,151.0,7.19,159.0,7.94,12.41,47.59359,-54.27349
2021-11-01 09:24:00+00:00,149.0,6.86,148.0,7.81,12.41,47.59359,-54.27349
2021-11-01 09:34:00+00:00,150.0,6.97,152.0,8.42,12.41,47.59359,-54.27349
2021-11-01 09:44:00+00:00,157.0,6.68,161.0,7.65,12.41,47.59359,-54.27349
2021-11-01 09:54:00+00:00,153.0,7.34,158.0,8.46,12.41,47.59359,-54.27349
2021-11-01 10:04:00+00:00,149.0,7.4,135.0,8.78,12.41,47.59359,-54.27349
2021-11-01 10:14:01+00:00,162.0,8.08,166.0,8.7,12.41,47.59359,-54.27349
2021-11-01 10:24:01+00:00,159.0,7.98,162.0,9.1,12.41,47.59359,-54.27349
2021-11-01 10:34:01+00:00,160.0,8.55,165.0,10.59,12.41,47.59359,-54.27349
2021-11-01 10:44:01+00:00,157.0,10.02,159.0,11.4,12.41,47.59359,-54.27349
2021-11-01 10:54:01+00:00,162.0,8.6,167.0,9.41,12.41,47.59359,-54.27349
2021-11-01 11:04:01+00:00,167.0,8.27,163.0,9.36,12.41,47.59359,-54.27349
2021-11-01 11:14:01+00:00,167.0,10.51,166.0,11.57,12.41,47.59359,-54.27349
2021-11-01 11:24:01+00:00,167.0,9.34,168.0,10.28,12.41,47.59359,-54.27349
2021-11-01 11:34:01+00:00,161.0,9.41,158.0,10.13,12.41,47.59359,-54.27349
2021-11-01 11:44:01+00:00,159.0,9.06,160.0,9.9,12.41,47.59359,-54.27349
2021-11-01 11:54:01+00:00,155.0,7.67,160.0,9.42,12.41,47.59359,-54.27349
2021-11-01 12:04:01+00:00,151.0,7.93,151.0,9.72,12.41,47.59359,-54.27349
2021-11-01 12:14:00+00:00,159.0,9.64,163.0,10.86,12.65,47.59359,-54.27349
2021-11-01 12:24:00+00:00,159.0,8.03,158.0,9.1,12.65,47.59359,-54.27349
2021-11-01 12:34:00+00:00,156.0,7.61,160.0,8.63,12.65,47.59359,-54.27349
2021-11-01 12:44:00+00:00,166.0,8.83,168.0,10.44,12.65,47.59359,-54.27349
2021-11-01 12:54:00+00:00,167.0,8.89,163.0,10.28,12.65,47.59359,-54.27349
2021-11-01 13:04:00+00:00,161.0,10.46,165.0,12.06,12.65,47.59359,-54.27349
2021-11-01 13:14:00+00:00,159.0,9.55,160.0,11.21,12.81,47.59359,-54.27349
2021-11-01 13:24:00+00:00,167.0,8.76,168.0,9.77,12.81,47.59359,-54.27349
2021-11-01 13:34:00+00:00,160.0,9.67,162.0,11.49,12.81,47.59359,-54.27349
2021-11-01 13:44:00+00:00,160.0,9.66,160.0,11.88,12.81,47.59359,-54.27349
2021-11-01 13:54:00+00:00,161.0,9.91,164.0,11.53,12.81,47.59359,-54.27349
2021-11-01 14:04:00+00:00,162.0,8.61,158.0,10.06,12.81,47.59359,-54.27349
2021-11-01 14:14:01+00:00,163.0,8.53,162.0,10.49,13.05,47.59359,-54.27349
2021-11-01 14:24:01+00:00,163.0,8.61,163.0,10.36,13.05,47.59359,-54.27349
2021-11-01 14:34:01+00:00,161.0,7.55,155.0,8.56,13.05,47.59359,-54.27349
2021-11-01 14:44:01+00:00,163.0,6.24,158.0,7.44,13.05,47.59359,-54.27349
2021-11-01 14:54:01+00:00,178.0,3.01,168.0,3.86,13.05,47.59359,-54.27349
2021-11-01 15:04:01+00:00,174.0,4.89,171.0,5.68,13.05,47.59359,-54.27349
2021-11-01 15:14:01+00:00,168.0,5.16,173.0,6.88,13.05,47.59359,-54.27349
2021-11-01 15:24:01+00:00,180.0,6.66,183.0,7.81,13.05,47.59359,-54.27349
2021-11-01 15:34:01+00:00,179.0,6.87,178.0,7.7,13.05,47.59359,-54.27349
2021-11-01 15:44:01+00:00,175.0,7.48,176.0,9.49,13.05,47.59359,-54.27349
2021-11-01 15:54:01+00:00,170.0,7.85,169.0,9.56,13.05,47.59359,-54.27349
2021-11-01 16:04:01+00:00,173.0,7.23,178.0,7.97,13.05,47.59359,-54.27349
2021-11-01 16:14:01+00:00,175.0,9.81,166.0,11.31,12.89,47.59359,-54.27349
2021-11-01 16:24:01+00:00,173.0,9.96,168.0,11.34,12.89,47.59359,-54.27349
2021-11-01 16:34:01+00:00,171.0,10.6,169.0,13.61,12.89,47.59359,-54.27349
2021-11-01 16:44:01+00:00,175.0,9.92,169.0,12.59,12.89,47.59359,-54.27349
2021-11-01 16:54:01+00:00,172.0,11.98,171.0,14.82,12.89,47.59359,-54.27349
2021-11-01 17:04:01+00:00,172.0,10.95,176.0,12.57,12.89,47.59359,-54.27349
2021-11-01 18:14:01+00:00,175.0,13.35,176.0,14.64,12.81,47.59359,-54.27349
2021-11-01 18:24:01+00:00,171.0,12.1,168.0,14.16,12.81,47.59359,-54.27349
2021-11-01 18:34:01+00:00,174.0,12.14,176.0,13.77,12.81,47.59359,-54.27349
2021-11-01 18:44:01+00:00,174.0,12.55,169.0,14.58,12.81,47.59359,-54.27349
2021-11-01 18:54:01+00:00,170.0,11.81,168.0,13.54,12.81,47.59359,-54.27349
2021-11-01 19:04:01+00:00,172.0,11.17,175.0,12.55,12.81,47.59359,-54.27349
2021-11-01 20:14:01+00:00,201.0,11.58,200.0,13.24,12.57,47.59359,-54.27349
2021-11-01 20:24:01+00:00,205.0,11.55,205.0,13.28,12.57,47.59359,-54.27349
2021-11-01 20:34:01+00:00,213.0,10.31,210.0,11.99,12.57,47.59359,-54.27349
2021-11-01 20:44:01+00:00,213.0,11.63,212.0,13.71,12.57,47.59359,-54.27349
2021-11-01 20:54:01+00:00,207.0,10.55,208.0,11.59,12.57,47.59359,-54.27349
2021-11-01 21:04:01+00:00,213.0,9.78,210.0,10.98,12.57,47.59359,-54.27349
2021-11-01 21:14:01+00:00,214.0,10.8,216.0,11.84,12.49,47.59359,-54.27349
2021-11-01 21:24:01+00:00,214.0,10.15,216.0,11.71,12.49,47.59359,-54.27349
2021-11-01 21:34:01+00:00,217.0,9.16,217.0,10.34,12.49,47.59359,-54.27349
2021-11-01 21:44:01+00:00,210.0,9.69,210.0,11.0,12.49,47.59359,-54.27349
2021-11-01 21:54:01+00:00,215.0,6.56,219.0,7.68,12.49,47.59359,-54.27349
2021-11-01 22:04:01+00:00,205.0,7.92,208.0,9.72,12.49,47.59359,-54.27349
2021-11-01 22:14:01+00:00,208.0,7.33,208.0,8.43,12.41,47.59359,-54.27349
2021-11-01 22:24:01+00:00,221.0,5.18,215.0,6.27,12.41,47.59359,-54.27349
2021-11-01 22:34:01+00:00,214.0,6.75,210.0,7.52,12.41,47.59359,-54.27349
2021-11-01 22:44:01+00:00,212.0,5.86,214.0,6.8,12.41,47.59359,-54.27349
2021-11-01 22:54:01+00:00,215.0,6.78,213.0,7.84,12.41,47.59359,-54.27349
2021-11-01 23:04:01+00:00,212.0,6.61,209.0,7.4,12.41,47.59359,-54.27349
2021-11-01 23:14:00+00:00,210.0,7.13,208.0,7.86,12.41,47.59359,-54.27349
2021-11-01 23:24:00+00:00,215.0,7.22,215.0,8.2,12.41,47.59359,-54.27349
2021-11-01 23:34:00+00:00,220.0,7.43,216.0,8.58,12.41,47.59359,-54.27349
2021-11-01 23:44:00+00:00,214.0,7.79,214.0,8.51,12.41,47.59359,-54.27349
2021-11-01 23:54:00+00:00,218.0,7.34,217.0,7.92,12.41,47.59359,-54.27349
